Time,TemperatureF,DewpointF,PressureIn,WindDirection,WindDirectionDegrees,WindSpeedMPH,WindSpeedGustMPH,Humidity,HourlyPrecipIn,Conditions,Clouds,dailyrainin,SoftwareType,DateUTC
2013-03-06 00:02:00,32.4,30.1,-100.00,North,-999,-999.0,-999.0,93,-99.99,,,-99.99,,2013-03-06 05:02:00,
2013-03-06 00:04:00,32.4,30.5,-100.00,North,-999,-999.0,-999.0,94,-99.99,,,-99.99,,2013-03-06 05:04:00,
2013-03-06 00:09:00,32.2,30.1,-100.00,North,-999,-999.0,-999.0,94,-99.99,,,-99.99,,2013-03-06 05:09:00,
2013-03-06 00:14:00,32.2,29.6,-100.00,North,-999,-999.0,-999.0,92,-99.99,,,-99.99,,2013-03-06 05:14:00,
2013-03-06 00:19:00,32.2,29.8,-100.00,North,-999,-999.0,-999.0,93,-99.99,,,-99.99,,2013-03-06 05:19:00,
2013-03-06 00:24:00,32.0,30.3,-100.00,North,-999,-999.0,-999.0,95,-99.99,,,-99.99,,2013-03-06 05:24:00,
2013-03-06 00:29:00,31.8,30.7,-100.00,North,-999,-999.0,-999.0,96,-99.99,,,-99.99,,2013-03-06 05:29:00,
2013-03-06 00:34:00,31.6,31.4,-100.00,North,-999,-999.0,-999.0,99,-99.99,,,-99.99,,2013-03-06 05:34:00,
2013-03-06 00:39:00,31.6,30.7,-100.00,North,-999,-999.0,-999.0,97,-99.99,,,-99.99,,2013-03-06 05:39:00,
2013-03-06 00:44:00,31.5,31.2,-100.00,North,-999,-999.0,-999.0,99,-99.99,,,-99.99,,2013-03-06 05:44:00,
2013-03-06 00:49:00,31.3,31.1,-100.00,North,-999,-999.0,-999.0,99,-99.99,,,-99.99,,2013-03-06 05:49:00,
2013-03-06 00:54:00,31.3,31.2,-100.00,North,-999,-999.0,-999.0,99,-99.99,,,-99.99,,2013-03-06 05:54:00,
2013-03-06 00:59:00,31.1,31.1,-100.00,North,-999,-999.0,-999.0,99,-99.99,,,-99.99,,2013-03-06 05:59:00,
2013-03-06 01:04:00,31.1,31.1,-100.00,North,-999,-999.0,-999.0,99,-99.99,,,-99.99,,2013-03-06 06:04:00,
2013-03-06 01:09:00,30.9,30.9,-100.00,North,-999,-999.0,-999.0,99,-99.99,,,-99.99,,2013-03-06 06:09:00,
2013-03-06 01:14:00,30.9,30.9,-100.00,North,-999,-999.0,-999.0,99,-99.99,,,-99.99,,2013-03-06 06:14:00,
2013-03-06 01:19:00,30.7,30.7,-100.00,North,-999,-999.0,-999.0,99,-99.99,,,-99.99,,2013-03-06 06:19:00,
2013-03-06 01:24:00,30.7,30.7,-100.00,North,-999,-999.0,-999.0,99,-99.99,,,-99.99,,2013-03-06 06:24:00,
2013-03-06 01:29:00,30.7,30.7,-100.00,North,-999,-999.0,-999.0,99,-99.99,,,-99.99,,2013-03-06 06:29:00,
2013-03-06 01:37:00,30.9,30.9,-100.00,North,-999,-999.0,-999.0,99,-99.99,,,-99.99,,2013-03-06 06:37:00,
2013-03-06 01:42:00,30.9,30.9,-100.00,North,-999,-999.0,-999.0,99,-99.99,,,-99.99,,2013-03-06 06:42:00,
2013-03-06 01:47:00,31.1,31.1,-100.00,North,-999,-999.0,-999.0,99,-99.99,,,-99.99,,2013-03-06 06:47:00,
2013-03-06 01:52:00,31.1,31.1,-100.00,North,-999,-999.0,-999.0,99,-99.99,,,-99.99,,2013-03-06 06:52:00,
2013-03-06 01:57:00,31.1,31.1,-100.00,North,-999,-999.0,-999.0,99,-99.99,,,-99.99,,2013-03-06 06:57:00,
2013-03-06 02:02:00,31.1,31.1,-100.00,North,-999,-999.0,-999.0,99,-99.99,,,-99.99,,2013-03-06 07:02:00,
2013-03-06 02:07:00,31.3,31.2,-100.00,North,-999,-999.0,-999.0,99,-99.99,,,-99.99,,2013-03-06 07:07:00,
2013-03-06 02:14:00,31.3,31.2,-100.00,North,-999,-999.0,-999.0,99,-99.99,,,-99.99,,2013-03-06 07:14:00,
2013-03-06 02:19:00,31.3,31.2,-100.00,North,-999,-999.0,-999.0,99,-99.99,,,-99.99,,2013-03-06 07:19:00,
2013-03-06 02:24:00,31.3,31.2,-100.00,North,-999,-999.0,-999.0,99,-99.99,,,-99.99,,2013-03-06 07:24:00,
2013-03-06 02:29:00,31.5,31.4,-100.00,North,-999,-999.0,-999.0,99,-99.99,,,-99.99,,2013-03-06 07:29:00,
2013-03-06 02:34:00,31.5,31.4,-100.00,North,-999,-999.0,-999.0,99,-99.99,,,-99.99,,2013-03-06 07:34:00,
2013-03-06 02:39:00,31.6,31.6,-100.00,North,-999,-999.0,-999.0,99,-99.99,,,-99.99,,2013-03-06 07:39:00,
2013-03-06 02:44:00,31.6,31.6,-100.00,North,-999,-999.0,-999.0,99,-99.99,,,-99.99,,2013-03-06 07:44:00,
2013-03-06 02:49:00,31.8,31.8,-100.00,North,-999,-999.0,-999.0,99,-99.99,,,-99.99,,2013-03-06 07:49:00,
2013-03-06 02:54:00,32.0,32.0,-100.00,North,-999,-999.0,-999.0,99,-99.99,,,-99.99,,2013-03-06 07:54:00,
2013-03-06 02:59:00,32.2,32.1,-100.00,North,-999,-999.0,-999.0,99,-99.99,,,-99.99,,2013-03-06 07:59:00,
2013-03-06 03:04:00,32.5,32.5,-100.00,North,-999,-999.0,-999.0,99,-99.99,,,-99.99,,2013-03-06 08:04:00,
2013-03-06 03:09:00,32.7,32.7,-100.00,North,-999,-999.0,-999.0,99,-99.99,,,-99.99,,2013-03-06 08:09:00,
2013-03-06 03:14:00,32.9,32.9,-100.00,North,-999,-999.0,-999.0,99,-99.99,,,-99.99,,2013-03-06 08:14:00,
2013-03-06 03:19:00,33.4,33.4,-100.00,North,-999,-999.0,-999.0,99,-99.99,,,-99.99,,2013-03-06 08:19:00,
2013-03-06 03:24:00,33.8,33.8,-100.00,North,-999,-999.0,-999.0,99,-99.99,,,-99.99,,2013-03-06 08:24:00,
2013-03-06 03:29:00,33.8,33.8,-100.00,North,-999,-999.0,-999.0,99,-99.99,,,-99.99,,2013-03-06 08:29:00,
2013-03-06 03:34:00,33.8,33.8,-100.00,North,-999,-999.0,-999.0,99,-99.99,,,-99.99,,2013-03-06 08:34:00,
2013-03-06 03:39:00,33.8,33.8,-100.00,North,-999,-999.0,-999.0,99,-99.99,,,-99.99,,2013-03-06 08:39:00,
2013-03-06 03:44:00,33.8,33.8,-100.00,North,-999,-999.0,-999.0,99,-99.99,,,-99.99,,2013-03-06 08:44:00,
2013-03-06 03:49:00,33.6,33.6,-100.00,North,-999,-999.0,-999.0,99,-99.99,,,-99.99,,2013-03-06 08:49:00,
2013-03-06 03:54:00,33.4,33.4,-100.00,North,-999,-999.0,-999.0,99,-99.99,,,-99.99,,2013-03-06 08:54:00,
2013-03-06 03:59:00,33.4,33.4,-100.00,North,-999,-999.0,-999.0,99,-99.99,,,-99.99,,2013-03-06 08:59:00,
2013-03-06 04:04:00,33.4,33.4,-100.00,North,-999,-999.0,-999.0,99,-99.99,,,-99.99,,2013-03-06 09:04:00,
2013-03-06 04:09:00,33.6,33.6,-100.00,North,-999,-999.0,-999.0,99,-99.99,,,-99.99,,2013-03-06 09:09:00,
2013-03-06 04:15:00,33.6,33.6,-100.00,North,-999,-999.0,-999.0,99,-99.99,,,-99.99,,2013-03-06 09:15:00,
2013-03-06 04:20:00,33.6,33.6,-100.00,North,-999,-999.0,-999.0,99,-99.99,,,-99.99,,2013-03-06 09:20:00,
2013-03-06 04:25:00,33.6,33.6,-100.00,North,-999,-999.0,-999.0,99,-99.99,,,-99.99,,2013-03-06 09:25:00,
2013-03-06 04:30:00,33.6,33.6,-100.00,North,-999,-999.0,-999.0,99,-99.99,,,-99.99,,2013-03-06 09:30:00,
2013-03-06 04:35:00,33.6,33.6,-100.00,North,-999,-999.0,-999.0,99,-99.99,,,-99.99,,2013-03-06 09:35:00,
2013-03-06 04:40:00,33.6,33.6,-100.00,North,-999,-999.0,-999.0,99,-99.99,,,-99.99,,2013-03-06 09:40:00,
2013-03-06 04:45:00,33.6,33.6,-100.00,North,-999,-999.0,-999.0,99,-99.99,,,-99.99,,2013-03-06 09:45:00,
2013-03-06 04:50:00,33.6,33.6,-100.00,North,-999,-999.0,-999.0,99,-99.99,,,-99.99,,2013-03-06 09:50:00,
2013-03-06 04:55:00,33.4,33.4,-100.00,North,-999,-999.0,-999.0,99,-99.99,,,-99.99,,2013-03-06 09:55:00,
2013-03-06 05:00:00,33.4,33.4,-100.00,North,-999,-999.0,-999.0,99,-99.99,,,-99.99,,2013-03-06 10:00:00,
2013-03-06 05:05:00,33.4,33.4,-100.00,North,-999,-999.0,-999.0,99,-99.99,,,-99.99,,2013-03-06 10:05:00,
2013-03-06 05:10:00,33.4,33.4,-100.00,North,-999,-999.0,-999.0,99,-99.99,,,-99.99,,2013-03-06 10:10:00,
2013-03-06 05:15:00,33.4,33.4,-100.00,North,-999,-999.0,-999.0,99,-99.99,,,-99.99,,2013-03-06 10:15:00,
2013-03-06 05:20:00,33.4,33.4,-100.00,North,-999,-999.0,-999.0,99,-99.99,,,-99.99,,2013-03-06 10:20:00,
2013-03-06 05:25:00,33.6,33.6,-100.00,North,-999,-999.0,-999.0,99,-99.99,,,-99.99,,2013-03-06 10:25:00,
2013-03-06 05:32:00,33.6,33.6,-100.00,North,-999,-999.0,-999.0,99,-99.99,,,-99.99,,2013-03-06 10:32:00,
2013-03-06 05:37:00,33.8,33.8,-100.00,North,-999,-999.0,-999.0,99,-99.99,,,-99.99,,2013-03-06 10:37:00,
2013-03-06 05:42:00,33.8,33.8,-100.00,North,-999,-999.0,-999.0,99,-99.99,,,-99.99,,2013-03-06 10:42:00,
2013-03-06 05:47:00,33.8,33.8,-100.00,North,-999,-999.0,-999.0,99,-99.99,,,-99.99,,2013-03-06 10:47:00,
2013-03-06 05:52:00,33.6,33.6,-100.00,North,-999,-999.0,-999.0,99,-99.99,,,-99.99,,2013-03-06 10:52:00,
2013-03-06 05:57:00,33.6,33.6,-100.00,North,-999,-999.0,-999.0,99,-99.99,,,-99.99,,2013-03-06 10:57:00,
2013-03-06 06:02:00,33.6,33.6,-100.00,North,-999,-999.0,-999.0,99,-99.99,,,-99.99,,2013-03-06 11:02:00,
2013-03-06 06:07:00,33.4,33.4,-100.00,North,-999,-999.0,-999.0,99,-99.99,,,-99.99,,2013-03-06 11:07:00,
2013-03-06 06:12:00,33.6,33.6,-100.00,North,-999,-999.0,-999.0,99,-99.99,,,-99.99,,2013-03-06 11:12:00,
2013-03-06 06:17:00,33.6,33.6,-100.00,North,-999,-999.0,-999.0,99,-99.99,,,-99.99,,2013-03-06 11:17:00,
2013-03-06 06:22:00,33.6,33.6,-100.00,North,-999,-999.0,-999.0,99,-99.99,,,-99.99,,2013-03-06 11:22:00,
2013-03-06 06:30:00,33.6,33.6,-100.00,North,-999,-999.0,-999.0,99,-99.99,,,-99.99,,2013-03-06 11:30:00,
2013-03-06 06:35:00,33.8,33.8,-100.00,North,-999,-999.0,-999.0,99,-99.99,,,-99.99,,2013-03-06 11:35:00,
2013-03-06 06:40:00,33.6,33.6,-100.00,North,-999,-999.0,-999.0,99,-99.99,,,-99.99,,2013-03-06 11:40:00,
2013-03-06 06:45:00,33.6,33.6,-100.00,North,-999,-999.0,-999.0,99,-99.99,,,-99.99,,2013-03-06 11:45:00,
2013-03-06 06:50:00,33.6,33.6,-100.00,North,-999,-999.0,-999.0,99,-99.99,,,-99.99,,2013-03-06 11:50:00,
2013-03-06 06:55:00,33.8,33.8,-100.00,North,-999,-999.0,-999.0,99,-99.99,,,-99.99,,2013-03-06 11:55:00,
2013-03-06 07:00:00,33.6,33.6,-100.00,North,-999,-999.0,-999.0,99,-99.99,,,-99.99,,2013-03-06 12:00:00,
2013-03-06 07:05:00,33.6,33.6,-100.00,North,-999,-999.0,-999.0,99,-99.99,,,-99.99,,2013-03-06 12:05:00,
2013-03-06 07:10:00,33.8,33.8,-100.00,North,-999,-999.0,-999.0,99,-99.99,,,-99.99,,2013-03-06 12:10:00,
2013-03-06 07:17:00,34.0,33.9,-100.00,North,-999,-999.0,-999.0,99,-99.99,,,-99.99,,2013-03-06 12:17:00,
2013-03-06 07:22:00,34.0,33.9,-100.00,North,-999,-999.0,-999.0,99,-99.99,,,-99.99,,2013-03-06 12:22:00,
2013-03-06 07:27:00,34.0,33.9,-100.00,North,-999,-999.0,-999.0,99,-99.99,,,-99.99,,2013-03-06 12:27:00,
2013-03-06 07:32:00,34.0,33.9,-100.00,North,-999,-999.0,-999.0,99,-99.99,,,-99.99,,2013-03-06 12:32:00,
2013-03-06 07:37:00,34.2,34.1,-100.00,North,-999,-999.0,-999.0,99,-99.99,,,-99.99,,2013-03-06 12:37:00,
2013-03-06 07:45:00,34.2,34.1,-100.00,North,-999,-999.0,-999.0,99,-99.99,,,-99.99,,2013-03-06 12:45:00,
2013-03-06 07:50:00,34.3,34.3,-100.00,North,-999,-999.0,-999.0,99,-99.99,,,-99.99,,2013-03-06 12:50:00,
2013-03-06 07:55:00,34.3,34.3,-100.00,North,-999,-999.0,-999.0,99,-99.99,,,-99.99,,2013-03-06 12:55:00,
2013-03-06 08:00:00,34.5,34.5,-100.00,North,-999,-999.0,-999.0,99,-99.99,,,-99.99,,2013-03-06 13:00:00,
2013-03-06 08:05:00,34.5,34.5,-100.00,North,-999,-999.0,-999.0,99,-99.99,,,-99.99,,2013-03-06 13:05:00,
2013-03-06 08:10:00,34.7,34.7,-100.00,North,-999,-999.0,-999.0,99,-99.99,,,-99.99,,2013-03-06 13:10:00,
2013-03-06 08:15:00,34.7,34.7,-100.00,North,-999,-999.0,-999.0,99,-99.99,,,-99.99,,2013-03-06 13:15:00,
2013-03-06 08:20:00,34.7,34.7,-100.00,North,-999,-999.0,-999.0,99,-99.99,,,-99.99,,2013-03-06 13:20:00,
2013-03-06 08:25:00,34.9,34.8,-100.00,North,-999,-999.0,-999.0,99,-99.99,,,-99.99,,2013-03-06 13:25:00,
2013-03-06 08:30:00,35.1,35.0,-100.00,North,-999,-999.0,-999.0,99,-99.99,,,-99.99,,2013-03-06 13:30:00,
2013-03-06 08:35:00,35.1,35.0,-100.00,North,-999,-999.0,-999.0,99,-99.99,,,-99.99,,2013-03-06 13:35:00,
2013-03-06 08:40:00,35.1,35.0,-100.00,North,-999,-999.0,-999.0,99,-99.99,,,-99.99,,2013-03-06 13:40:00,
2013-03-06 08:45:00,35.2,35.2,-100.00,North,-999,-999.0,-999.0,99,-99.99,,,-99.99,,2013-03-06 13:45:00,
2013-03-06 08:50:00,35.1,35.0,-100.00,North,-999,-999.0,-999.0,99,-99.99,,,-99.99,,2013-03-06 13:50:00,
2013-03-06 08:55:00,35.1,35.0,-100.00,North,-999,-999.0,-999.0,99,-99.99,,,-99.99,,2013-03-06 13:55:00,
2013-03-06 09:00:00,35.1,35.0,-100.00,North,-999,-999.0,-999.0,99,-99.99,,,-99.99,,2013-03-06 14:00:00,
2013-03-06 09:05:00,35.1,35.0,-100.00,North,-999,-999.0,-999.0,99,-99.99,,,-99.99,,2013-03-06 14:05:00,
2013-03-06 09:10:00,35.1,35.0,-100.00,North,-999,-999.0,-999.0,99,-99.99,,,-99.99,,2013-03-06 14:10:00,
2013-03-06 09:15:00,35.1,35.0,-100.00,North,-999,-999.0,-999.0,99,-99.99,,,-99.99,,2013-03-06 14:15:00,
2013-03-06 09:20:00,35.1,35.0,-100.00,North,-999,-999.0,-999.0,99,-99.99,,,-99.99,,2013-03-06 14:20:00,
2013-03-06 09:27:00,35.1,35.0,-100.00,North,-999,-999.0,-999.0,99,-99.99,,,-99.99,,2013-03-06 14:27:00,
2013-03-06 09:35:00,34.9,34.8,-100.00,North,-999,-999.0,-999.0,99,-99.99,,,-99.99,,2013-03-06 14:35:00,
2013-03-06 09:40:00,34.9,34.8,-100.00,North,-999,-999.0,-999.0,99,-99.99,,,-99.99,,2013-03-06 14:40:00,
2013-03-06 09:45:00,35.6,35.6,-100.00,North,-999,-999.0,-999.0,99,-99.99,,,-99.99,,2013-03-06 14:45:00,
2013-03-06 09:50:00,35.8,35.7,-100.00,North,-999,-999.0,-999.0,99,-99.99,,,-99.99,,2013-03-06 14:50:00,
2013-03-06 09:55:00,35.6,35.6,-100.00,North,-999,-999.0,-999.0,99,-99.99,,,-99.99,,2013-03-06 14:55:00,
2013-03-06 10:00:00,35.8,35.7,-100.00,North,-999,-999.0,-999.0,99,-99.99,,,-99.99,,2013-03-06 15:00:00,
2013-03-06 10:05:00,36.0,35.9,-100.00,North,-999,-999.0,-999.0,99,-99.99,,,-99.99,,2013-03-06 15:05:00,
2013-03-06 10:10:00,36.1,36.1,-100.00,North,-999,-999.0,-999.0,99,-99.99,,,-99.99,,2013-03-06 15:10:00,
2013-03-06 10:15:00,36.1,36.1,-100.00,North,-999,-999.0,-999.0,99,-99.99,,,-99.99,,2013-03-06 15:15:00,
2013-03-06 10:20:00,36.0,35.9,-100.00,North,-999,-999.0,-999.0,99,-99.99,,,-99.99,,2013-03-06 15:20:00,
2013-03-06 10:25:00,35.6,35.6,-100.00,North,-999,-999.0,-999.0,99,-99.99,,,-99.99,,2013-03-06 15:25:00,
2013-03-06 10:30:00,35.4,35.4,-100.00,North,-999,-999.0,-999.0,99,-99.99,,,-99.99,,2013-03-06 15:30:00,
2013-03-06 10:35:00,35.1,35.0,-100.00,North,-999,-999.0,-999.0,99,-99.99,,,-99.99,,2013-03-06 15:35:00,
2013-03-06 10:40:00,35.4,35.4,-100.00,North,-999,-999.0,-999.0,99,-99.99,,,-99.99,,2013-03-06 15:40:00,
2013-03-06 10:45:00,35.6,35.6,-100.00,North,-999,-999.0,-999.0,99,-99.99,,,-99.99,,2013-03-06 15:45:00,
2013-03-06 10:50:00,35.8,35.7,-100.00,North,-999,-999.0,-999.0,99,-99.99,,,-99.99,,2013-03-06 15:50:00,
2013-03-06 10:55:00,35.8,35.7,-100.00,North,-999,-999.0,-999.0,99,-99.99,,,-99.99,,2013-03-06 15:55:00,
2013-03-06 11:00:00,36.0,35.9,-100.00,North,-999,-999.0,-999.0,99,-99.99,,,-99.99,,2013-03-06 16:00:00,
2013-03-06 11:05:00,36.1,36.1,-100.00,North,-999,-999.0,-999.0,99,-99.99,,,-99.99,,2013-03-06 16:05:00,
2013-03-06 11:10:00,36.3,36.3,-100.00,North,-999,-999.0,-999.0,99,-99.99,,,-99.99,,2013-03-06 16:10:00,
2013-03-06 11:15:00,36.1,36.1,-100.00,North,-999,-999.0,-999.0,99,-99.99,,,-99.99,,2013-03-06 16:15:00,
2013-03-06 11:20:00,36.3,36.3,-100.00,North,-999,-999.0,-999.0,99,-99.99,,,-99.99,,2013-03-06 16:20:00,
2013-03-06 11:25:00,36.3,36.3,-100.00,North,-999,-999.0,-999.0,99,-99.99,,,-99.99,,2013-03-06 16:25:00,
2013-03-06 11:30:00,37.0,37.0,-100.00,North,-999,-999.0,-999.0,99,-99.99,,,-99.99,,2013-03-06 16:30:00,
2013-03-06 11:35:00,37.4,36.9,-100.00,North,-999,-999.0,-999.0,98,-99.99,,,-99.99,,2013-03-06 16:35:00,
2013-03-06 11:40:00,37.4,36.2,-100.00,North,-999,-999.0,-999.0,96,-99.99,,,-99.99,,2013-03-06 16:40:00,
2013-03-06 11:45:00,37.4,36.7,-100.00,North,-999,-999.0,-999.0,98,-99.99,,,-99.99,,2013-03-06 16:45:00,
2013-03-06 11:50:00,37.0,37.0,-100.00,North,-999,-999.0,-999.0,99,-99.99,,,-99.99,,2013-03-06 16:50:00,
2013-03-06 11:55:00,37.2,37.2,-100.00,North,-999,-999.0,-999.0,99,-99.99,,,-99.99,,2013-03-06 16:55:00,
2013-03-06 12:00:00,37.2,36.6,-100.00,North,-999,-999.0,-999.0,98,-99.99,,,-99.99,,2013-03-06 17:00:00,
2013-03-06 12:05:00,37.2,36.3,-100.00,North,-999,-999.0,-999.0,97,-99.99,,,-99.99,,2013-03-06 17:05:00,
2013-03-06 12:10:00,36.9,35.6,-100.00,North,-999,-999.0,-999.0,96,-99.99,,,-99.99,,2013-03-06 17:10:00,
2013-03-06 12:15:00,36.9,32.9,-100.00,North,-999,-999.0,-999.0,89,-99.99,,,-99.99,,2013-03-06 17:15:00,
2013-03-06 12:20:00,36.5,35.6,-100.00,North,-999,-999.0,-999.0,97,-99.99,,,-99.99,,2013-03-06 17:20:00,
2013-03-06 12:25:00,36.5,32.7,-100.00,North,-999,-999.0,-999.0,89,-99.99,,,-99.99,,2013-03-06 17:25:00,
2013-03-06 12:30:00,36.5,32.2,-100.00,North,-999,-999.0,-999.0,88,-99.99,,,-99.99,,2013-03-06 17:30:00,
2013-03-06 12:35:00,36.5,31.2,-100.00,North,-999,-999.0,-999.0,85,-99.99,,,-99.99,,2013-03-06 17:35:00,
2013-03-06 12:40:00,36.5,29.2,-100.00,North,-999,-999.0,-999.0,79,-99.99,,,-99.99,,2013-03-06 17:40:00,
2013-03-06 12:45:00,36.7,30.9,-100.00,North,-999,-999.0,-999.0,83,-99.99,,,-99.99,,2013-03-06 17:45:00,
2013-03-06 12:50:00,37.0,29.4,-100.00,North,-999,-999.0,-999.0,78,-99.99,,,-99.99,,2013-03-06 17:50:00,
2013-03-06 12:55:00,37.2,30.8,-100.00,North,-999,-999.0,-999.0,82,-99.99,,,-99.99,,2013-03-06 17:55:00,
2013-03-06 13:00:00,37.4,32.6,-100.00,North,-999,-999.0,-999.0,86,-99.99,,,-99.99,,2013-03-06 18:00:00,
2013-03-06 13:05:00,37.0,31.9,-100.00,North,-999,-999.0,-999.0,85,-99.99,,,-99.99,,2013-03-06 18:05:00,
2013-03-06 13:10:00,37.0,32.7,-100.00,North,-999,-999.0,-999.0,88,-99.99,,,-99.99,,2013-03-06 18:10:00,
2013-03-06 13:15:00,37.0,31.4,-100.00,North,-999,-999.0,-999.0,84,-99.99,,,-99.99,,2013-03-06 18:15:00,
2013-03-06 13:20:00,37.2,31.3,-100.00,North,-999,-999.0,-999.0,83,-99.99,,,-99.99,,2013-03-06 18:20:00,
2013-03-06 13:25:00,37.2,31.7,-100.00,North,-999,-999.0,-999.0,84,-99.99,,,-99.99,,2013-03-06 18:25:00,
2013-03-06 13:30:00,36.9,33.4,-100.00,North,-999,-999.0,-999.0,90,-99.99,,,-99.99,,2013-03-06 18:30:00,
2013-03-06 13:35:00,37.2,34.4,-100.00,North,-999,-999.0,-999.0,92,-99.99,,,-99.99,,2013-03-06 18:35:00,
2013-03-06 13:40:00,37.2,34.4,-100.00,North,-999,-999.0,-999.0,92,-99.99,,,-99.99,,2013-03-06 18:40:00,
2013-03-06 13:45:00,37.0,35.2,-100.00,North,-999,-999.0,-999.0,94,-99.99,,,-99.99,,2013-03-06 18:45:00,
2013-03-06 13:50:00,36.9,33.7,-100.00,North,-999,-999.0,-999.0,91,-99.99,,,-99.99,,2013-03-06 18:50:00,
2013-03-06 13:58:00,36.1,36.1,-100.00,North,-999,-999.0,-999.0,99,-99.99,,,-99.99,,2013-03-06 18:58:00,
2013-03-06 14:03:00,36.1,36.1,-100.00,North,-999,-999.0,-999.0,99,-99.99,,,-99.99,,2013-03-06 19:03:00,
2013-03-06 14:08:00,36.5,36.5,-100.00,North,-999,-999.0,-999.0,99,-99.99,,,-99.99,,2013-03-06 19:08:00,
2013-03-06 14:13:00,36.9,36.4,-100.00,North,-999,-999.0,-999.0,98,-99.99,,,-99.99,,2013-03-06 19:13:00,
2013-03-06 14:18:00,37.2,37.2,-100.00,North,-999,-999.0,-999.0,99,-99.99,,,-99.99,,2013-03-06 19:18:00,
2013-03-06 14:23:00,37.2,37.2,-100.00,North,-999,-999.0,-999.0,99,-99.99,,,-99.99,,2013-03-06 19:23:00,
2013-03-06 14:28:00,37.0,37.0,-100.00,North,-999,-999.0,-999.0,99,-99.99,,,-99.99,,2013-03-06 19:28:00,
2013-03-06 14:33:00,36.9,36.8,-100.00,North,-999,-999.0,-999.0,99,-99.99,,,-99.99,,2013-03-06 19:33:00,
2013-03-06 14:38:00,36.5,34.8,-100.00,North,-999,-999.0,-999.0,95,-99.99,,,-99.99,,2013-03-06 19:38:00,
2013-03-06 14:45:00,36.7,36.6,-100.00,North,-999,-999.0,-999.0,99,-99.99,,,-99.99,,2013-03-06 19:45:00,
2013-03-06 14:50:00,36.5,35.1,-100.00,North,-999,-999.0,-999.0,96,-99.99,,,-99.99,,2013-03-06 19:50:00,
2013-03-06 14:55:00,36.0,35.9,-100.00,North,-999,-999.0,-999.0,99,-99.99,,,-99.99,,2013-03-06 19:55:00,
2013-03-06 15:00:00,35.4,35.4,-100.00,North,-999,-999.0,-999.0,99,-99.99,,,-99.99,,2013-03-06 20:00:00,
2013-03-06 15:05:00,34.7,34.7,-100.00,North,-999,-999.0,-999.0,99,-99.99,,,-99.99,,2013-03-06 20:05:00,
2013-03-06 15:10:00,34.5,34.5,-100.00,North,-999,-999.0,-999.0,99,-99.99,,,-99.99,,2013-03-06 20:10:00,
2013-03-06 15:15:00,34.5,34.5,-100.00,North,-999,-999.0,-999.0,99,-99.99,,,-99.99,,2013-03-06 20:15:00,
2013-03-06 15:20:00,34.9,34.8,-100.00,North,-999,-999.0,-999.0,99,-99.99,,,-99.99,,2013-03-06 20:20:00,
2013-03-06 15:28:00,35.1,35.0,-100.00,North,-999,-999.0,-999.0,99,-99.99,,,-99.99,,2013-03-06 20:28:00,
2013-03-06 15:33:00,34.9,34.8,-100.00,North,-999,-999.0,-999.0,99,-99.99,,,-99.99,,2013-03-06 20:33:00,
2013-03-06 15:38:00,34.5,34.5,-100.00,North,-999,-999.0,-999.0,99,-99.99,,,-99.99,,2013-03-06 20:38:00,
2013-03-06 15:43:00,34.3,34.3,-100.00,North,-999,-999.0,-999.0,99,-99.99,,,-99.99,,2013-03-06 20:43:00,
2013-03-06 15:48:00,34.3,34.3,-100.00,North,-999,-999.0,-999.0,99,-99.99,,,-99.99,,2013-03-06 20:48:00,
2013-03-06 15:53:00,34.3,34.3,-100.00,North,-999,-999.0,-999.0,99,-99.99,,,-99.99,,2013-03-06 20:53:00,
2013-03-06 16:00:00,34.0,33.9,-100.00,North,-999,-999.0,-999.0,99,-99.99,,,-99.99,,2013-03-06 21:00:00,
2013-03-06 16:05:00,33.6,33.6,-100.00,North,-999,-999.0,-999.0,99,-99.99,,,-99.99,,2013-03-06 21:05:00,
2013-03-06 16:13:00,33.4,33.4,-100.00,North,-999,-999.0,-999.0,99,-99.99,,,-99.99,,2013-03-06 21:13:00,
2013-03-06 16:18:00,33.6,33.6,-100.00,North,-999,-999.0,-999.0,99,-99.99,,,-99.99,,2013-03-06 21:18:00,
2013-03-06 16:23:00,33.6,33.6,-100.00,North,-999,-999.0,-999.0,99,-99.99,,,-99.99,,2013-03-06 21:23:00,
2013-03-06 16:28:00,33.4,33.4,-100.00,North,-999,-999.0,-999.0,99,-99.99,,,-99.99,,2013-03-06 21:28:00,
2013-03-06 16:33:00,33.3,33.2,-100.00,North,-999,-999.0,-999.0,99,-99.99,,,-99.99,,2013-03-06 21:33:00,
2013-03-06 16:38:00,33.3,33.2,-100.00,North,-999,-999.0,-999.0,99,-99.99,,,-99.99,,2013-03-06 21:38:00,
2013-03-06 16:43:00,33.3,33.2,-100.00,North,-999,-999.0,-999.0,99,-99.99,,,-99.99,,2013-03-06 21:43:00,
2013-03-06 16:48:00,33.3,33.2,-100.00,North,-999,-999.0,-999.0,99,-99.99,,,-99.99,,2013-03-06 21:48:00,
2013-03-06 16:53:00,33.1,33.0,-100.00,North,-999,-999.0,-999.0,99,-99.99,,,-99.99,,2013-03-06 21:53:00,
2013-03-06 16:58:00,33.1,33.0,-100.00,North,-999,-999.0,-999.0,99,-99.99,,,-99.99,,2013-03-06 21:58:00,
2013-03-06 17:03:00,33.1,33.0,-100.00,North,-999,-999.0,-999.0,99,-99.99,,,-99.99,,2013-03-06 22:03:00,
2013-03-06 17:08:00,33.1,33.0,-100.00,North,-999,-999.0,-999.0,99,-99.99,,,-99.99,,2013-03-06 22:08:00,
2013-03-06 17:13:00,32.9,32.9,-100.00,North,-999,-999.0,-999.0,99,-99.99,,,-99.99,,2013-03-06 22:13:00,
2013-03-06 17:18:00,32.9,32.9,-100.00,North,-999,-999.0,-999.0,99,-99.99,,,-99.99,,2013-03-06 22:18:00,
2013-03-06 17:23:00,32.7,32.7,-100.00,North,-999,-999.0,-999.0,99,-99.99,,,-99.99,,2013-03-06 22:23:00,
2013-03-06 17:28:00,32.7,32.7,-100.00,North,-999,-999.0,-999.0,99,-99.99,,,-99.99,,2013-03-06 22:28:00,
2013-03-06 17:33:00,32.7,32.7,-100.00,North,-999,-999.0,-999.0,99,-99.99,,,-99.99,,2013-03-06 22:33:00,
2013-03-06 17:38:00,32.5,32.5,-100.00,North,-999,-999.0,-999.0,99,-99.99,,,-99.99,,2013-03-06 22:38:00,
2013-03-06 17:43:00,32.5,32.5,-100.00,North,-999,-999.0,-999.0,99,-99.99,,,-99.99,,2013-03-06 22:43:00,
2013-03-06 17:48:00,32.4,32.3,-100.00,North,-999,-999.0,-999.0,99,-99.99,,,-99.99,,2013-03-06 22:48:00,
2013-03-06 17:53:00,32.2,32.1,-100.00,North,-999,-999.0,-999.0,99,-99.99,,,-99.99,,2013-03-06 22:53:00,
2013-03-06 17:58:00,32.2,32.1,-100.00,North,-999,-999.0,-999.0,99,-99.99,,,-99.99,,2013-03-06 22:58:00,
2013-03-06 18:03:00,32.0,32.0,-100.00,North,-999,-999.0,-999.0,99,-99.99,,,-99.99,,2013-03-06 23:03:00,
2013-03-06 18:08:00,32.0,32.0,-100.00,North,-999,-999.0,-999.0,99,-99.99,,,-99.99,,2013-03-06 23:08:00,
2013-03-06 18:13:00,31.8,31.8,-100.00,North,-999,-999.0,-999.0,99,-99.99,,,-99.99,,2013-03-06 23:13:00,
2013-03-06 18:18:00,32.0,32.0,-100.00,North,-999,-999.0,-999.0,99,-99.99,,,-99.99,,2013-03-06 23:18:00,
2013-03-06 18:23:00,32.0,32.0,-100.00,North,-999,-999.0,-999.0,99,-99.99,,,-99.99,,2013-03-06 23:23:00,
2013-03-06 18:28:00,32.0,32.0,-100.00,North,-999,-999.0,-999.0,99,-99.99,,,-99.99,,2013-03-06 23:28:00,
2013-03-06 18:33:00,31.8,31.8,-100.00,North,-999,-999.0,-999.0,99,-99.99,,,-99.99,,2013-03-06 23:33:00,
2013-03-06 18:38:00,32.0,32.0,-100.00,North,-999,-999.0,-999.0,99,-99.99,,,-99.99,,2013-03-06 23:38:00,
2013-03-06 18:43:00,32.0,32.0,-100.00,North,-999,-999.0,-999.0,99,-99.99,,,-99.99,,2013-03-06 23:43:00,
2013-03-06 18:48:00,32.0,32.0,-100.00,North,-999,-999.0,-999.0,99,-99.99,,,-99.99,,2013-03-06 23:48:00,
2013-03-06 18:53:00,32.2,32.1,-100.00,North,-999,-999.0,-999.0,99,-99.99,,,-99.99,,2013-03-06 23:53:00,
2013-03-06 18:58:00,32.2,32.1,-100.00,North,-999,-999.0,-999.0,99,-99.99,,,-99.99,,2013-03-06 23:58:00,
2013-03-06 19:03:00,32.2,32.1,-100.00,North,-999,-999.0,-999.0,99,-99.99,,,-99.99,,2013-03-07 00:03:00,
2013-03-06 19:08:00,32.4,32.3,-100.00,North,-999,-999.0,-999.0,99,-99.99,,,-99.99,,2013-03-07 00:08:00,
2013-03-06 19:13:00,32.4,32.3,-100.00,North,-999,-999.0,-999.0,99,-99.99,,,-99.99,,2013-03-07 00:13:00,
2013-03-06 19:18:00,32.5,32.5,-100.00,North,-999,-999.0,-999.0,99,-99.99,,,-99.99,,2013-03-07 00:18:00,
2013-03-06 19:23:00,32.5,32.5,-100.00,North,-999,-999.0,-999.0,99,-99.99,,,-99.99,,2013-03-07 00:23:00,
2013-03-06 19:28:00,32.5,32.5,-100.00,North,-999,-999.0,-999.0,99,-99.99,,,-99.99,,2013-03-07 00:28:00,
2013-03-06 19:33:00,32.4,32.3,-100.00,North,-999,-999.0,-999.0,99,-99.99,,,-99.99,,2013-03-07 00:33:00,
2013-03-06 19:38:00,32.4,32.3,-100.00,North,-999,-999.0,-999.0,99,-99.99,,,-99.99,,2013-03-07 00:38:00,
2013-03-06 19:43:00,32.2,32.1,-100.00,North,-999,-999.0,-999.0,99,-99.99,,,-99.99,,2013-03-07 00:43:00,
2013-03-06 19:48:00,32.2,32.1,-100.00,North,-999,-999.0,-999.0,99,-99.99,,,-99.99,,2013-03-07 00:48:00,
2013-03-06 19:53:00,32.0,32.0,-100.00,North,-999,-999.0,-999.0,99,-99.99,,,-99.99,,2013-03-07 00:53:00,
2013-03-06 19:58:00,32.0,32.0,-100.00,North,-999,-999.0,-999.0,99,-99.99,,,-99.99,,2013-03-07 00:58:00,
2013-03-06 20:03:00,31.8,31.8,-100.00,North,-999,-999.0,-999.0,99,-99.99,,,-99.99,,2013-03-07 01:03:00,
2013-03-06 20:08:00,31.6,31.6,-100.00,North,-999,-999.0,-999.0,99,-99.99,,,-99.99,,2013-03-07 01:08:00,
2013-03-06 20:13:00,31.6,31.6,-100.00,North,-999,-999.0,-999.0,99,-99.99,,,-99.99,,2013-03-07 01:13:00,
2013-03-06 20:18:00,31.5,31.4,-100.00,North,-999,-999.0,-999.0,99,-99.99,,,-99.99,,2013-03-07 01:18:00,
2013-03-06 20:23:00,31.3,31.2,-100.00,North,-999,-999.0,-999.0,99,-99.99,,,-99.99,,2013-03-07 01:23:00,
2013-03-06 20:28:00,31.3,31.2,-100.00,North,-999,-999.0,-999.0,99,-99.99,,,-99.99,,2013-03-07 01:28:00,
2013-03-06 20:33:00,31.3,31.2,-100.00,North,-999,-999.0,-999.0,99,-99.99,,,-99.99,,2013-03-07 01:33:00,
2013-03-06 20:38:00,31.3,31.2,-100.00,North,-999,-999.0,-999.0,99,-99.99,,,-99.99,,2013-03-07 01:38:00,
2013-03-06 20:43:00,31.3,31.2,-100.00,North,-999,-999.0,-999.0,99,-99.99,,,-99.99,,2013-03-07 01:43:00,
2013-03-06 20:48:00,31.3,31.2,-100.00,North,-999,-999.0,-999.0,99,-99.99,,,-99.99,,2013-03-07 01:48:00,
2013-03-06 20:53:00,31.3,31.2,-100.00,North,-999,-999.0,-999.0,99,-99.99,,,-99.99,,2013-03-07 01:53:00,
2013-03-06 20:58:00,31.3,31.2,-100.00,North,-999,-999.0,-999.0,99,-99.99,,,-99.99,,2013-03-07 01:58:00,
2013-03-06 21:03:00,31.1,31.1,-100.00,North,-999,-999.0,-999.0,99,-99.99,,,-99.99,,2013-03-07 02:03:00,
2013-03-06 21:08:00,31.1,31.1,-100.00,North,-999,-999.0,-999.0,99,-99.99,,,-99.99,,2013-03-07 02:08:00,
2013-03-06 21:13:00,30.9,30.9,-100.00,North,-999,-999.0,-999.0,99,-99.99,,,-99.99,,2013-03-07 02:13:00,
2013-03-06 21:18:00,30.9,30.9,-100.00,North,-999,-999.0,-999.0,99,-99.99,,,-99.99,,2013-03-07 02:18:00,
2013-03-06 21:26:00,30.9,30.9,-100.00,North,-999,-999.0,-999.0,99,-99.99,,,-99.99,,2013-03-07 02:26:00,
2013-03-06 21:31:00,30.9,30.9,-100.00,North,-999,-999.0,-999.0,99,-99.99,,,-99.99,,2013-03-07 02:31:00,
2013-03-06 21:36:00,30.9,30.9,-100.00,North,-999,-999.0,-999.0,99,-99.99,,,-99.99,,2013-03-07 02:36:00,
2013-03-06 21:41:00,30.9,30.9,-100.00,North,-999,-999.0,-999.0,99,-99.99,,,-99.99,,2013-03-07 02:41:00,
2013-03-06 21:46:00,30.9,30.9,-100.00,North,-999,-999.0,-999.0,99,-99.99,,,-99.99,,2013-03-07 02:46:00,
2013-03-06 21:53:00,30.9,30.9,-100.00,North,-999,-999.0,-999.0,99,-99.99,,,-99.99,,2013-03-07 02:53:00,
2013-03-06 21:58:00,30.9,30.9,-100.00,North,-999,-999.0,-999.0,99,-99.99,,,-99.99,,2013-03-07 02:58:00,
2013-03-06 22:03:00,30.9,30.9,-100.00,North,-999,-999.0,-999.0,99,-99.99,,,-99.99,,2013-03-07 03:03:00,
2013-03-06 22:11:00,30.9,30.9,-100.00,North,-999,-999.0,-999.0,99,-99.99,,,-99.99,,2013-03-07 03:11:00,
2013-03-06 22:16:00,30.9,30.9,-100.00,North,-999,-999.0,-999.0,99,-99.99,,,-99.99,,2013-03-07 03:16:00,
2013-03-06 22:21:00,30.9,30.9,-100.00,North,-999,-999.0,-999.0,99,-99.99,,,-99.99,,2013-03-07 03:21:00,
2013-03-06 22:26:00,30.9,30.9,-100.00,North,-999,-999.0,-999.0,99,-99.99,,,-99.99,,2013-03-07 03:26:00,
2013-03-06 22:31:00,30.7,30.7,-100.00,North,-999,-999.0,-999.0,99,-99.99,,,-99.99,,2013-03-07 03:31:00,
2013-03-06 22:36:00,30.9,30.9,-100.00,North,-999,-999.0,-999.0,99,-99.99,,,-99.99,,2013-03-07 03:36:00,
2013-03-06 22:41:00,30.9,30.9,-100.00,North,-999,-999.0,-999.0,99,-99.99,,,-99.99,,2013-03-07 03:41:00,
2013-03-06 22:49:00,30.7,30.7,-100.00,North,-999,-999.0,-999.0,99,-99.99,,,-99.99,,2013-03-07 03:49:00,
2013-03-06 22:54:00,30.9,30.9,-100.00,North,-999,-999.0,-999.0,99,-99.99,,,-99.99,,2013-03-07 03:54:00,
2013-03-06 22:59:00,30.9,30.9,-100.00,North,-999,-999.0,-999.0,99,-99.99,,,-99.99,,2013-03-07 03:59:00,
2013-03-06 23:06:00,30.7,30.7,-100.00,North,-999,-999.0,-999.0,99,-99.99,,,-99.99,,2013-03-07 04:06:00,
2013-03-06 23:11:00,30.7,30.7,-100.00,North,-999,-999.0,-999.0,99,-99.99,,,-99.99,,2013-03-07 04:11:00,
2013-03-06 23:16:00,30.7,30.7,-100.00,North,-999,-999.0,-999.0,99,-99.99,,,-99.99,,2013-03-07 04:16:00,
2013-03-06 23:21:00,30.7,30.7,-100.00,North,-999,-999.0,-999.0,99,-99.99,,,-99.99,,2013-03-07 04:21:00,
2013-03-06 23:26:00,30.7,30.7,-100.00,North,-999,-999.0,-999.0,99,-99.99,,,-99.99,,2013-03-07 04:26:00,
2013-03-06 23:31:00,30.7,30.7,-100.00,North,-999,-999.0,-999.0,99,-99.99,,,-99.99,,2013-03-07 04:31:00,
2013-03-06 23:36:00,30.7,30.7,-100.00,North,-999,-999.0,-999.0,99,-99.99,,,-99.99,,2013-03-07 04:36:00,
2013-03-06 23:41:00,30.7,30.7,-100.00,North,-999,-999.0,-999.0,99,-99.99,,,-99.99,,2013-03-07 04:41:00,
2013-03-06 23:46:00,30.7,30.7,-100.00,North,-999,-999.0,-999.0,99,-99.99,,,-99.99,,2013-03-07 04:46:00,
2013-03-06 23:51:00,30.6,30.5,-100.00,North,-999,-999.0,-999.0,99,-99.99,,,-99.99,,2013-03-07 04:51:00,
2013-03-06 23:56:00,30.6,30.5,-100.00,North,-999,-999.0,-999.0,99,-99.99,,,-99.99,,2013-03-07 04:56:00,